Cedar Ridge, CA

3:54 AM PDT on September 26, 2016 (GMT -0700)
Grass Valley

Weather History for KGOO - October, 2013

Change the Weather History Date:

Monday, October 7, 2013

  Actual Average (KBLU) Record (KBLU)
Temperature  
Mean Temperature 67 °F -  
Max Temperature 75 °F 64 °F 85 °F (1965)
Min Temperature 59 °F 47 °F 26 °F (1949)
Cooling Degree Days 2    
Growing Degree Days 17 (Base 50)    
Moisture  
Dew Point 16 °F    
Average Humidity 15    
Maximum Humidity 23    
Minimum Humidity 9    
Precipitation  
Precipitation 0.00 in - - ()
Sea Level Pressure  
Sea Level Pressure 30.03 in    
Wind  
Wind Speed 2 mph (West)    
Max Wind Speed 10 mph    
Max Gust Speed -    
Visibility 10 miles    
Events      
Averages and records for this station are not official NWS values.
T = Trace of Precipitation, MM = Missing Value Source: NWS Daily Summary

Daily Weather History Graph

Daily Weather History Graph

Search for Another Location

Airport or City:

Trip Planner

Search our weather history database for the weather conditions in past years. The results will help you decide how hot, cold, wet, or windy it might be!

Date:

Astronomy

Oct. 07, 2013 Rise Set
Actual Time 7:06 AM PDT 6:36 PM PDT
Civil Twilight 6:39 AM PDT 7:03 PM PDT
Nautical Twilight 6:08 AM PDT 7:34 PM PDT
Astronomical Twilight 5:37 AM PDT 8:05 PM PDT
Moon 10:00 AM PDT (10/7) 8:27 PM PDT (10/7)
Length of Visible Light 12h 24m
Length of Day
11h 30m
Waxing Crescent, 9% of the Moon is Illuminated
Oct 7
Waxing Crescent
Oct 11
First Quarter
Oct 18
Full
Oct 26
Last Quarter
Nov 3
New

Hourly Weather History & Observations

Time (PDT) Temp. Dew Point Humidity Pressure Visibility Wind Dir Wind Speed Gust Speed Precip Events Conditions
12:15 AM 64.4 °F 10.4 °F 12% 30.11 in 10.0 mi East 4.6 mph - N/A   Clear
12:35 AM 62.6 °F 10.4 °F 13% 30.11 in 10.0 mi Calm Calm - N/A   Clear
12:55 AM 64.4 °F 10.4 °F 12% 30.10 in 10.0 mi East 5.8 mph - N/A   Clear
1:15 AM 64.4 °F 10.4 °F 12% 30.10 in 10.0 mi East 4.6 mph - N/A   Clear
1:35 AM 64.4 °F 10.4 °F 12% 30.10 in 10.0 mi East 5.8 mph - N/A   Clear
1:55 AM 64.4 °F 12.2 °F 13% 30.10 in 10.0 mi East 5.8 mph - N/A   Clear
2:15 AM 62.6 °F 12.2 °F 14% 30.09 in 10.0 mi Calm Calm - N/A   Clear
2:35 AM 64.4 °F 10.4 °F 12% 30.09 in 10.0 mi Calm Calm - N/A   Clear
2:55 AM 62.6 °F 12.2 °F 14% 30.09 in 10.0 mi Calm Calm - N/A   Clear
3:15 AM 62.6 °F 10.4 °F 13% 30.08 in 10.0 mi Calm Calm - N/A   Clear
3:35 AM 62.6 °F 10.4 °F 13% 30.08 in 10.0 mi Calm Calm - N/A   Clear
3:55 AM 62.6 °F 10.4 °F 13% 30.07 in 10.0 mi Calm Calm - N/A   Clear
4:15 AM 62.6 °F 10.4 °F 13% 30.07 in 10.0 mi Calm Calm - N/A   Clear
4:35 AM 62.6 °F 10.4 °F 13% 30.07 in 10.0 mi Calm Calm - N/A   Clear
4:55 AM 60.8 °F 10.4 °F 14% 30.07 in 10.0 mi Calm Calm - N/A   Clear
5:15 AM 60.8 °F 10.4 °F 14% 30.07 in 10.0 mi Calm Calm - N/A   Clear
5:35 AM 59.0 °F 10.4 °F 15% 30.06 in 10.0 mi Calm Calm - N/A   Clear
5:55 AM 60.8 °F 10.4 °F 14% 30.06 in 10.0 mi Calm Calm - N/A   Clear
6:15 AM 59.0 °F 10.4 °F 15% 30.06 in 10.0 mi Calm Calm - N/A   Clear
6:35 AM 62.6 °F 10.4 °F 13% 30.06 in 10.0 mi Calm Calm - N/A   Clear
6:55 AM 60.8 °F 10.4 °F 14% 30.06 in 10.0 mi Calm Calm - N/A   Clear
7:15 AM 60.8 °F 10.4 °F 14% 30.06 in 10.0 mi Calm Calm - N/A   Clear
7:35 AM 62.6 °F 8.6 °F 12% 30.06 in 10.0 mi Calm Calm - N/A   Clear
7:55 AM 62.6 °F 12.2 °F 14% 30.06 in 10.0 mi Calm Calm - N/A   Clear
8:15 AM 66.2 °F 14.0 °F 13% 30.07 in 10.0 mi Calm Calm - N/A   Clear
8:35 AM 66.2 °F 19.4 °F 17% 30.07 in 10.0 mi Calm Calm - N/A   Clear
8:55 AM 68.0 °F 19.4 °F 16% 30.07 in 10.0 mi Calm Calm - N/A   Clear
9:15 AM 68.0 °F 19.4 °F 16% 30.07 in 10.0 mi Calm Calm - N/A   Clear
9:35 AM 68.0 °F 15.8 °F 13% 30.07 in 10.0 mi Calm Calm - N/A   Clear
9:55 AM 68.0 °F 17.6 °F 15% 30.07 in 10.0 mi Calm Calm - N/A   Clear
10:15 AM 68.0 °F 8.6 °F 10% 30.07 in 10.0 mi Calm Calm - N/A   Clear
10:35 AM 69.8 °F 6.8 °F 9% 30.07 in 10.0 mi Calm Calm - N/A   Clear
10:55 AM 71.6 °F 12.2 °F 10% 30.07 in 10.0 mi West 4.6 mph - N/A   Clear
11:15 AM 71.6 °F 15.8 °F 12% 30.06 in 10.0 mi West 3.5 mph - N/A   Clear
11:35 AM 71.6 °F 15.8 °F 12% 30.06 in 10.0 mi West 3.5 mph - N/A   Clear
11:55 AM 71.6 °F 15.8 °F 12% 30.05 in 10.0 mi Calm Calm - N/A   Clear
12:15 PM 73.4 °F 15.8 °F 11% 30.05 in 10.0 mi WSW 4.6 mph - N/A   Clear
12:35 PM 75.2 °F 17.6 °F 11% 30.04 in 10.0 mi WNW 6.9 mph - N/A   Clear
12:55 PM 73.4 °F 17.6 °F 12% 30.04 in 10.0 mi West 10.4 mph - N/A   Clear
1:15 PM 73.4 °F 17.6 °F 12% 30.03 in 10.0 mi West 5.8 mph - N/A   Clear
1:35 PM 75.2 °F 17.6 °F 11% 30.02 in 10.0 mi Calm Calm - N/A   Clear
1:55 PM 73.4 °F 19.4 °F 13% 30.01 in 10.0 mi West 9.2 mph - N/A   Clear
2:15 PM 73.4 °F 19.4 °F 13% 30.01 in 10.0 mi WNW 8.1 mph - N/A   Clear
2:35 PM 73.4 °F 19.4 °F 13% 30.01 in 10.0 mi WSW 4.6 mph - N/A   Clear
2:55 PM 73.4 °F 19.4 °F 13% 30.01 in 10.0 mi West 5.8 mph - N/A   Clear
3:15 PM 73.4 °F 19.4 °F 13% 30.01 in 10.0 mi WNW 8.1 mph - N/A   Clear
3:35 PM 73.4 °F 17.6 °F 12% 30.00 in 10.0 mi West 8.1 mph - N/A   Clear
3:55 PM 73.4 °F 17.6 °F 12% 30.00 in 10.0 mi West 9.2 mph - N/A   Clear
4:15 PM 71.6 °F 17.6 °F 13% 29.99 in 10.0 mi West 6.9 mph - N/A   Clear
4:35 PM 71.6 °F 19.4 °F 14% 29.99 in 10.0 mi SSW 3.5 mph - N/A   Clear
4:55 PM 71.6 °F 21.2 °F 15% 29.99 in 10.0 mi WSW 8.1 mph - N/A   Clear
5:15 PM 71.6 °F 19.4 °F 14% 29.98 in 10.0 mi Calm Calm - N/A   Clear
5:35 PM 69.8 °F 21.2 °F 16% 29.98 in 10.0 mi Calm Calm - N/A   Clear
5:55 PM 68.0 °F 21.2 °F 17% 29.98 in 10.0 mi Calm Calm - N/A   Clear
6:15 PM 68.0 °F 21.2 °F 17% 29.98 in 10.0 mi Calm Calm - N/A   Clear
6:35 PM 66.2 °F 23.0 °F 19% 29.97 in 10.0 mi Calm Calm - N/A   Clear
6:55 PM 66.2 °F 24.8 °F 21% 29.98 in 10.0 mi Calm Calm - N/A   Clear
7:15 PM 64.4 °F 24.8 °F 22% 29.98 in 10.0 mi Calm Calm - N/A   Clear
7:35 PM 64.4 °F 24.8 °F 22% 29.98 in 10.0 mi Calm Calm - N/A   Clear
7:55 PM 64.4 °F 23.0 °F 21% 29.98 in 10.0 mi Calm Calm - N/A   Clear
8:15 PM 62.6 °F 23.0 °F 22% 29.98 in 10.0 mi Calm Calm - N/A   Clear
8:35 PM 62.6 °F 19.4 °F 19% 29.98 in 10.0 mi Calm Calm - N/A   Clear
8:55 PM 62.6 °F 21.2 °F 20% 29.99 in 10.0 mi Calm Calm - N/A   Clear
9:15 PM 62.6 °F 19.4 °F 19% 29.98 in 10.0 mi Calm Calm - N/A   Clear
9:35 PM 62.6 °F 19.4 °F 19% 29.98 in 10.0 mi Calm Calm - N/A   Clear
9:55 PM 62.6 °F 21.2 °F 20% 29.98 in 10.0 mi Calm Calm - N/A   Clear
10:15 PM 62.6 °F 23.0 °F 22% 29.98 in 10.0 mi Calm Calm - N/A   Clear
10:35 PM 62.6 °F 21.2 °F 20% 29.98 in 10.0 mi Calm Calm - N/A   Clear
10:55 PM 62.6 °F 21.2 °F 20% 29.98 in 10.0 mi Calm Calm - N/A   Clear
11:15 PM 62.6 °F 21.2 °F 20% 29.98 in 10.0 mi Calm Calm - N/A   Clear
11:35 PM 60.8 °F 21.2 °F 22% 29.98 in 10.0 mi Calm Calm - N/A   Clear
11:55 PM 59.0 °F 21.2 °F 23% 29.97 in 10.0 mi Calm Calm - N/A   Clear